Regional Weather Roundup
Issued by NWS

Home | Current Version | Previous Version | Graphics & Text | Print | Product List | Glossary Off
Versions: 1 2 3 4 5 6 7 8 9 10 11 12 13 14 15 16 17 18 19 20 21 22 23 24 25 26 27 28 29 30 31 32 33 34 35 36 37 38 39 40 41 42 43 44 45 46 47 48 49 50

000
ASUS43 KLSX 021157
RWRMO

WEATHER SUMMARY FOR MISSOURI
NATIONAL WEATHER SERVICE SPRINGFIELD MO
700 AM CDT WED SEP 02 2015

NOTE: "FAIR" INDICATES FEW OR NO CLOUDS BELOW 12,000 FEET WITH NO
       SIGNIFICANT WEATHER AND/OR OBSTRUCTIONS TO VISIBILITY.
       CURRENT SKY AND/OR WEATHER CONDITIONS ARE NOT AVAILABLE FOR
       CHILLICOTHE AND FARMINGTON.

MOZ001>031-035>038-043-044-053-054-021300-
...NORTHERN AND WESTERN MISSOURI...

CITY           SKY/WX    TMP DP  RH WIND       PRES   REMARKS
KANSAS CTY INT CLOUDY    73  65  75 S7        30.01R
6HR MIN TEMP:  72; 6HR MAX TEMP:  74;

LEE`S SUMMIT   PTCLDY    70  65  84 S10       30.03R
6HR MIN TEMP:  70; 6HR MAX TEMP:  75;

ST JOSEPH      TSTM      71  69  93 SE8       30.01R FOG
6HR MIN TEMP:  71; 6HR MAX TEMP:  75; 6HR PCP:  0.22;

CHILLICOTHE      N/A     70  68  93 CALM      30.05R
6HR MIN TEMP:  67; 6HR MAX TEMP:  72;


$$
MOZ066>068-077>081-088>096-101>105-021300-
...SOUTHWEST MISSOURI...

CITY           SKY/WX    TMP DP  RH WIND       PRES   REMARKS
SPRINGFIELD    CLEAR     70  64  81 SE9       30.10R
6HR MIN TEMP:  69; 6HR MAX TEMP:  73;

JOPLIN         PTCLDY    71  66  84 S13       30.07R
6HR MIN TEMP:  71; 6HR MAX TEMP:  74;


$$
MOZ032>034-039>042-045>050-055>058-069>072-021300-
...CENTRAL MISSOURI...

CITY           SKY/WX    TMP DP  RH WIND       PRES   REMARKS
COLUMBIA       NOT AVBL
JEFFERSON CITY PTCLDY    70  68  93 E3        30.08R FOG
6HR MIN TEMP:  69; 6HR MAX TEMP:  74;

ROLLA          CLEAR     71  67  87 S8        30.10R
6HR MIN TEMP:  69; 6HR MAX TEMP:  73;

SEDALIA        PTCLDY    70  65  84 S8        30.07R
6HR MIN TEMP:  70; 6HR MAX TEMP:  75;


$$
MOZ051-052-059>065-021300-
...EAST CENTRAL MISSOURI...

CITY           SKY/WX    TMP DP  RH WIND       PRES   REMARKS
ST LOUIS INTL  PTCLDY    76  68  76 CALM      30.10R
6HR MIN TEMP:  75; 6HR MAX TEMP:  80;


$$
MOZ072>076-082>087-097>100-106>115-021300-
...SOUTH CENTRAL AND SOUTHEAST MISSOURI...

CITY           SKY/WX    TMP DP  RH WIND       PRES   REMARKS
CAPE GIRARDEAU CLEAR     67  65  93 CALM      30.12R
6HR MIN TEMP:  65; 6HR MAX TEMP:  70;

POPLAR BLUFF     N/A     66  65  96 NE3       30.11R FOG
6HR MIN TEMP:  65; 6HR MAX TEMP:  73;

WEST PLAINS    CLEAR     66  64  93 CALM      30.15R FOG
6HR MIN TEMP:  66; 6HR MAX TEMP:  74;


$$


USA.gov is the U.S. government's official web portal to all federal, state and local government web resources and services.